Zurück zum Katalog

ONEWEB-0213

AktivKommunikationPO
NORAD 48790·PAYLOAD·🇬🇧 United Kingdom

Gestartet May 28, 2021 von Vostochny Cosmodrome

Loading…

Nächste Überflüge (nächste 24 Stunden)

TLE

AktuellSource: CelesTrak SupGP

Epoche: Sep 14, 2026, 14:54 UTC

1 48790C 21045Z   26257.62135833 -.00002894  00000+0 -76957-2 0  2570
2 48790  87.8986 241.3666 0002181  79.6052  20.5021 13.15549861    19

Verfolge ONEWEB-0213 in Echtzeit mit AllMySat

Download on the App Store